Contacto @
curve curve curve curve

ESCUELA DE PILOTOS

Dron

CONTACTO INFORMACIÓN CURSO
PILOTO RPA - DRONES - UAV



Para más información, llamar al 972 23 41 26, enviar un email a info@aerbrava.com o rellenar el siguiente formulario.

Los campos marcados (*) son obligatorios

Nombre:
  

Teléfono:
  

*Email:
  

*Repita Email:
  

Texto:
  

He leído y acepto el tratamiento de datos personales y la política de privacidad

Matrícula abierta Piloto RPAs - Drones - UAVs.
Domingo
20 Agosto de 2017
Página cargada a las 00:14 UTC
Orto: 05:06 UTC
Ocaso: 18:38 UTC

2017/08/20 00:00 LEGE 200000Z 00000KT 9999 FEW020 BKN050 22/14 Q1020


2017/08/19 18:27 TAF LEGE 191700Z 1918/2018 19008KT 9999 FEW020 BKN040 TX30/2014Z TN18/2006Z BECMG 1918/1920 VRB04KT TEMPO 1921/2014 BKN014 BECMG 2012/2014 18010KT
Sólo se muestran los aviones equipados con el sistema ADS-B en directo desde FlightRadar24
Aerbrava en el facebook Aerbrava en el youtube Aerbrava en el twitter Google+
Instagram tumblr flikr
logo inicio Nosotros | Mapa del sitio | Oportunidades profesionales | Privacidad | Contacte con nosotros | © 2017 AERBRAVA, SCP